| time (UTC) | temp F | wind direction | speed knots | gust knots | rain 1hr in | rain 24hr in | rain mn in | humidity % | barometer mb |
| 20260901221317 | 59 | 235 | 1.7 | 5.2 | 0.00 | 0.02 | 0.00 | 95 | 1025.1 |
| 20260901220816 | 59 | 241 | 0.9 | 4.3 | 0.00 | 0.02 | 0.00 | 95 | 1025.0 |
| 20260901220316 | 59 | 224 | 0.9 | 4.3 | 0.00 | 0.02 | 0.00 | 95 | 1025.0 |
| 20260901215814 | 58 | 195 | 1.7 | 3.5 | 0.00 | 0.02 | 0.00 | 95 | 1024.9 |
| 20260901215316 | 58 | 180 | 1.7 | 2.6 | 0.00 | 0.02 | 0.00 | 95 | 1024.9 |
| 20260901215231 | 57 | 175 | 0.9 | 3.5 | 0.00 | 0.02 | 0.00 | 95 | 1024.9 |
| 20260901214227 | 56 | 150 | 0.9 | 3.5 | 0.00 | 0.02 | 0.00 | 95 | 1024.8 |
| 20260901213728 | 55 | 205 | 0.9 | 3.5 | 0.00 | 0.02 | 0.00 | 95 | 1024.8 |
| 20260901213446 | 54 | 245 | 0.0 | 3.5 | 0.00 | 0.02 | 0.00 | 95 | 1024.7 |
| 20260901212725 | 53 | 246 | 0.0 | 1.7 | 0.00 | 0.02 | 0.00 | 95 | 1024.6 |
| 20260901212451 | 53 | 246 | 0.0 | 0.9 | 0.00 | 0.02 | 0.00 | 94 | 1024.5 |
| 20260901211720 | 52 | 246 | 0.0 | 0.0 | 0.00 | 0.02 | 0.00 | 94 | 1024.5 |
| 20260901211216 | 52 | 246 | 0.0 | 0.0 | 0.00 | 0.02 | 0.00 | 94 | 1024.4 |
| 20260901210716 | 51 | 247 | 0.0 | 0.0 | 0.00 | 0.02 | 0.00 | 94 | 1024.4 |
| 20260901210216 | 51 | 247 | 0.0 | 0.0 | 0.00 | 0.02 | 0.00 | 94 | 1024.4 |
| 20260901205714 | 51 | 247 | 0.0 | 0.0 | 0.00 | 0.02 | 0.00 | 93 | 1024.4 |
| 20260901205213 | 51 | 247 | 0.0 | 0.0 | 0.00 | 0.02 | 0.00 | 93 | 1024.3 |
| 20260901204710 | 50 | 247 | 0.0 | 0.0 | 0.00 | 0.02 | 0.00 | 93 | 1024.3 |
| 20260901204209 | 50 | 247 | 0.0 | 0.0 | 0.00 | 0.02 | 0.00 | 93 | 1024.3 |
| 20260901203706 | 50 | 247 | 0.0 | 0.0 | 0.00 | 0.02 | 0.00 | 93 | 1024.3 |
| 20260901203204 | 50 | 247 | 0.0 | 0.0 | 0.00 | 0.02 | 0.00 | 93 | 1024.2 |
| 20260901202658 | 50 | 247 | 0.0 | 0.9 | 0.00 | 0.02 | 0.00 | 93 | 1024.2 |
| 20260901202158 | 50 | 247 | 0.0 | 0.9 | 0.00 | 0.02 | 0.00 | 93 | 1024.2 |
| 20260901201653 | 50 | 247 | 0.0 | 0.9 | 0.00 | 0.02 | 0.00 | 93 | 1024.2 |
| 20260901201423 | 50 | 247 | 0.0 | 0.9 | 0.00 | 0.02 | 0.00 | 93 | 1024.3 |
| 20260901200653 | 51 | 247 | 0.0 | 0.9 | 0.00 | 0.02 | 0.00 | 93 | 1024.1 |
| 20260901200151 | 51 | 247 | 0.0 | 0.9 | 0.00 | 0.02 | 0.00 | 93 | 1024.0 |
| 20260901195652 | 51 | 247 | 0.0 | 1.7 | 0.00 | 0.02 | 0.00 | 93 | 1024.0 |
| 20260901195149 | 51 | 247 | 0.0 | 1.7 | 0.00 | 0.02 | 0.00 | 93 | 1024.1 |
| 20260901194647 | 51 | 247 | 0.0 | 1.7 | 0.00 | 0.02 | 0.00 | 93 | 1024.0 |
| 20260901194148 | 51 | 247 | 0.0 | 1.7 | 0.00 | 0.02 | 0.00 | 93 | 1024.1 |
| 20260901193645 | 51 | 247 | 0.0 | 0.9 | 0.00 | 0.02 | 0.00 | 93 | 1024.0 |
| 20260901193146 | 51 | 247 | 0.0 | 0.9 | 0.00 | 0.02 | 0.00 | 93 | 1024.0 |
| 20260901193132 | 51 | 247 | 0.0 | 0.0 | 0.00 | 0.02 | 0.00 | 93 | 1023.9 |
| 20260901192411 | 51 | 247 | 0.0 | 0.0 | 0.00 | 0.02 | 0.00 | 93 | 1023.9 |
| 20260901191645 | 52 | 247 | 0.0 | 0.0 | 0.00 | 0.02 | 0.00 | 93 | 1023.8 |
| 20260901191146 | 52 | 247 | 0.0 | 0.0 | 0.00 | 0.02 | 0.00 | 93 | 1023.8 |
| 20260901191134 | 52 | 247 | 0.0 | 0.0 | 0.00 | 0.02 | 0.00 | 93 | 1023.7 |
| 20260901190141 | 52 | 247 | 0.0 | 1.7 | 0.00 | 0.02 | 0.00 | 93 | 1023.6 |
| 20260901185640 | 52 | 247 | 0.0 | 1.7 | 0.00 | 0.02 | 0.00 | 93 | 1023.7 |
| 20260901185142 | 52 | 247 | 0.0 | 1.7 | 0.00 | 0.02 | 0.00 | 93 | 1023.6 |
| 20260901184642 | 52 | 247 | 0.0 | 1.7 | 0.00 | 0.02 | 0.00 | 93 | 1023.7 |
| 20260901184141 | 52 | 247 | 0.0 | 1.7 | 0.00 | 0.02 | 0.00 | 93 | 1023.7 |
| 20260901183835 | 52 | 247 | 0.0 | 1.7 | 0.00 | 0.02 | 0.00 | 93 | 1023.7 |
| 20260901183106 | 52 | 247 | 0.0 | 1.7 | 0.00 | 0.02 | 0.00 | 93 | 1023.6 |
| 20260901182605 | 51 | 247 | 0.0 | 4.3 | 0.00 | 0.02 | 0.00 | 93 | 1023.7 |
| 20260901182106 | 51 | 247 | 0.0 | 4.3 | 0.00 | 0.02 | 0.00 | 93 | 1023.6 |
| 20260901181600 | 51 | 247 | 0.9 | 4.3 | 0.00 | 0.02 | 0.00 | 93 | 1023.6 |
| 20260901181059 | 51 | 247 | 0.9 | 4.3 | 0.00 | 0.02 | 0.00 | 93 | 1023.6 |
| 20260901180600 | 50 | 241 | 0.9 | 4.3 | 0.00 | 0.02 | 0.00 | 93 | 1023.5 |
| 20260901180109 | 50 | 175 | 0.0 | 3.5 | 0.00 | 0.02 | 0.00 | 92 | 1023.5 |
| 20260901175833 | 50 | 153 | 0.0 | 0.9 | 0.00 | 0.02 | 0.00 | 92 | 1023.5 |
| 20260901175057 | 50 | 153 | 0.0 | 0.9 | 0.00 | 0.02 | 0.00 | 92 | 1023.5 |
| 20260901174557 | 50 | 153 | 0.0 | 0.9 | 0.00 | 0.02 | 0.00 | 92 | 1023.5 |
| 20260901174058 | 50 | 153 | 0.0 | 0.9 | 0.00 | 0.02 | 0.00 | 92 | 1023.6 |
| 20260901173821 | 50 | 153 | 0.0 | 0.9 | 0.00 | 0.02 | 0.00 | 92 | 1023.5 |
| 20260901173053 | 50 | 153 | 0.0 | 0.9 | 0.00 | 0.02 | 0.00 | 92 | 1023.5 |
| 20260901172808 | 50 | 153 | 0.0 | 0.9 | 0.00 | 0.02 | 0.00 | 92 | 1023.6 |
| 20260901172053 | 50 | 153 | 0.0 | 0.0 | 0.00 | 0.02 | 0.00 | 92 | 1023.6 |
| 20260901171538 | 50 | 153 | 0.0 | 0.0 | 0.00 | 0.02 | 0.00 | 92 | 1023.7 |
| 20260901171037 | 50 | 153 | 0.0 | 0.0 | 0.00 | 0.02 | 0.00 | 92 | 1023.8 |
| 20260901170526 | 50 | 153 | 0.0 | 0.0 | 0.00 | 0.02 | 0.00 | 92 | 1023.8 |
| 20260901170025 | 51 | 153 | 0.0 | 0.0 | 0.00 | 0.02 | 0.00 | 92 | 1023.9 |
| 20260901165743 | 51 | 153 | 0.0 | 0.0 | 0.00 | 0.02 | 0.00 | 92 | 1023.9 |
| 20260901165023 | 51 | 153 | 0.0 | 0.0 | 0.00 | 0.02 | 0.00 | 92 | 1024.0 |
| 20260901164521 | 51 | 153 | 0.0 | 0.0 | 0.00 | 0.02 | 0.00 | 92 | 1024.1 |
| 20260901164226 | 51 | 153 | 0.0 | 0.0 | 0.00 | 0.02 | 0.00 | 91 | 1024.2 |
| 20260901164112 | 51 | 153 | 0.0 | 0.0 | 0.00 | 0.02 | 0.00 | 92 | 1024.2 |
| 20260901163016 | 51 | 153 | 0.0 | 0.9 | 0.00 | 0.02 | 0.00 | 91 | 1024.3 |
| 20260901162515 | 51 | 153 | 0.0 | 0.9 | 0.00 | 0.02 | 0.00 | 91 | 1024.3 |
| 20260901162012 | 51 | 153 | 0.0 | 0.0 | 0.00 | 0.02 | 0.00 | 91 | 1024.4 |
| 20260901161510 | 51 | 153 | 0.0 | 0.9 | 0.00 | 0.02 | 0.00 | 91 | 1024.4 |
| 20260901161008 | 51 | 153 | 0.0 | 0.9 | 0.00 | 0.02 | 0.00 | 91 | 1024.4 |
| 20260901160507 | 51 | 153 | 0.0 | 0.9 | 0.00 | 0.02 | 0.00 | 91 | 1024.5 |
| 20260901160228 | 51 | 153 | 0.0 | 0.9 | 0.00 | 0.02 | 0.00 | 91 | 1024.6 |
| 20260901155502 | 51 | 153 | 0.0 | 0.9 | 0.00 | 0.02 | 0.00 | 91 | 1024.5 |
| 20260901155000 | 51 | 153 | 0.0 | 0.9 | 0.00 | 0.02 | 0.00 | 91 | 1024.6 |
| 20260901154457 | 51 | 153 | 0.0 | 0.0 | 0.00 | 0.02 | 0.00 | 91 | 1024.5 |
| 20260901154220 | 51 | 153 | 0.0 | 0.9 | 0.00 | 0.02 | 0.00 | 91 | 1024.5 |
| 20260901153430 | 51 | 153 | 0.0 | 0.9 | 0.00 | 0.02 | 0.00 | 91 | 1024.5 |
| 20260901153140 | 51 | 153 | 0.0 | 0.9 | 0.00 | 0.02 | 0.00 | 91 | 1024.6 |
| 20260901152429 | 52 | 153 | 0.0 | 0.9 | 0.00 | 0.02 | 0.00 | 91 | 1024.5 |
| 20260901151913 | 52 | 153 | 0.0 | 0.9 | 0.00 | 0.02 | 0.00 | 91 | 1024.5 |
| 20260901151412 | 52 | 153 | 0.0 | 0.9 | 0.00 | 0.02 | 0.00 | 91 | 1024.7 |
| 20260901150912 | 52 | 153 | 0.0 | 0.9 | 0.00 | 0.02 | 0.00 | 91 | 1024.6 |
| 20260901150637 | 52 | 153 | 0.0 | 0.0 | 0.00 | 0.02 | 0.00 | 91 | 1024.7 |
| 20260901145908 | 52 | 153 | 0.0 | 0.0 | 0.00 | 0.02 | 0.00 | 91 | 1024.7 |
| 20260901145408 | 52 | 153 | 0.0 | 0.0 | 0.00 | 0.02 | 0.00 | 91 | 1024.7 |
| 20260901144902 | 52 | 153 | 0.0 | 0.0 | 0.00 | 0.02 | 0.00 | 91 | 1024.8 |
| 20260901144400 | 52 | 153 | 0.0 | 0.0 | 0.00 | 0.02 | 0.00 | 91 | 1024.8 |
| 20260901144120 | 52 | 153 | 0.0 | 0.9 | 0.00 | 0.02 | 0.00 | 91 | 1024.9 |
| 20260901143400 | 52 | 153 | 0.0 | 0.0 | 0.00 | 0.02 | 0.00 | 91 | 1024.9 |
| 20260901142836 | 53 | 153 | 0.0 | 0.9 | 0.01 | 0.02 | 0.00 | 90 | 1025.0 |
| 20260901142333 | 53 | 153 | 0.0 | 0.0 | 0.01 | 0.02 | 0.00 | 90 | 1025.1 |
| 20260901141831 | 53 | 153 | 0.0 | 0.0 | 0.01 | 0.02 | 0.00 | 90 | 1025.1 |
| 20260901141330 | 53 | 153 | 0.0 | 0.0 | 0.01 | 0.02 | 0.00 | 90 | 1025.1 |
| 20260901141052 | 53 | 153 | 0.0 | 0.9 | 0.01 | 0.02 | 0.00 | 90 | 1025.2 |
| 20260901140326 | 53 | 153 | 0.0 | 0.9 | 0.01 | 0.02 | 0.00 | 90 | 1025.2 |
| 20260901135824 | 53 | 153 | 0.0 | 0.0 | 0.01 | 0.02 | 0.02 | 90 | 1025.3 |
| 20260901135548 | 53 | 153 | 0.0 | 0.0 | 0.01 | 0.02 | 0.02 | 90 | 1025.3 |
| 20260901134822 | 53 | 153 | 0.0 | 0.0 | 0.01 | 0.02 | 0.02 | 90 | 1025.4 |
| 20260901134318 | 53 | 153 | 0.0 | 0.0 | 0.01 | 0.02 | 0.02 | 90 | 1025.4 |
| 20260901133818 | 53 | 153 | 0.0 | 0.0 | 0.01 | 0.02 | 0.02 | 90 | 1025.5 |
| 20260901133538 | 53 | 153 | 0.0 | 0.0 | 0.00 | 0.01 | 0.01 | 90 | 1025.5 |
| 20260901132807 | 53 | 153 | 0.0 | 0.0 | 0.00 | 0.01 | 0.01 | 90 | 1025.5 |
| 20260901132307 | 54 | 153 | 0.0 | 0.9 | 0.00 | 0.01 | 0.01 | 90 | 1025.6 |
| 20260901131811 | 54 | 153 | 0.0 | 0.9 | 0.00 | 0.01 | 0.01 | 90 | 1025.6 |
| 20260901131302 | 54 | 153 | 0.0 | 0.0 | 0.00 | 0.01 | 0.01 | 89 | 1025.6 |
| 20260901130800 | 54 | 153 | 0.0 | 0.0 | 0.00 | 0.01 | 0.01 | 89 | 1025.7 |
| 20260901130258 | 54 | 153 | 0.0 | 0.0 | 0.00 | 0.01 | 0.01 | 89 | 1025.7 |
| 20260901125756 | 54 | 153 | 0.0 | 0.9 | 0.00 | 0.01 | 0.01 | 89 | 1025.6 |
| 20260901125253 | 54 | 153 | 0.0 | 0.9 | 0.00 | 0.01 | 0.01 | 89 | 1025.7 |
| 20260901124752 | 54 | 153 | 0.0 | 0.9 | 0.00 | 0.01 | 0.01 | 89 | 1025.7 |
| 20260901124250 | 54 | 153 | 0.0 | 0.9 | 0.00 | 0.01 | 0.01 | 89 | 1025.7 |
| 20260901123747 | 54 | 153 | 0.0 | 0.0 | 0.00 | 0.01 | 0.01 | 89 | 1025.7 |
| 20260901123247 | 55 | 153 | 0.0 | 0.0 | 0.00 | 0.01 | 0.01 | 88 | 1025.6 |
| 20260901122744 | 55 | 153 | 0.0 | 0.0 | 0.00 | 0.01 | 0.01 | 88 | 1025.6 |
| 20260901122242 | 55 | 153 | 0.0 | 0.0 | 0.00 | 0.01 | 0.01 | 88 | 1025.6 |
| 20260901121735 | 55 | 153 | 0.0 | 0.0 | 0.00 | 0.01 | 0.01 | 88 | 1025.7 |
| 20260901121718 | 55 | 153 | 0.0 | 0.0 | 0.00 | 0.01 | 0.01 | 88 | 1025.7 |
| 20260901120731 | 55 | 153 | 0.0 | 0.0 | 0.00 | 0.01 | 0.01 | 88 | 1025.7 |
| 20260901120234 | 55 | 153 | 0.0 | 0.0 | 0.00 | 0.01 | 0.01 | 88 | 1025.8 |
| 20260901115709 | 55 | 153 | 0.0 | 0.0 | 0.00 | 0.01 | 0.01 | 88 | 1025.8 |
| 20260901115209 | 55 | 153 | 0.0 | 0.9 | 0.00 | 0.01 | 0.01 | 88 | 1025.7 |
| 20260901114658 | 56 | 153 | 0.0 | 0.9 | 0.00 | 0.01 | 0.01 | 88 | 1025.7 |
| 20260901114155 | 56 | 153 | 0.0 | 0.9 | 0.00 | 0.01 | 0.01 | 88 | 1025.7 |
| 20260901113654 | 56 | 153 | 0.0 | 0.9 | 0.00 | 0.01 | 0.01 | 88 | 1025.8 |
| 20260901113151 | 56 | 153 | 0.0 | 0.9 | 0.00 | 0.01 | 0.01 | 88 | 1025.8 |
| 20260901112704 | 56 | 153 | 0.0 | 0.9 | 0.00 | 0.01 | 0.01 | 87 | 1025.8 |
| 20260901112147 | 56 | 153 | 0.0 | 0.0 | 0.00 | 0.01 | 0.01 | 87 | 1025.9 |
| 20260901111646 | 56 | 153 | 0.0 | 1.7 | 0.00 | 0.01 | 0.01 | 87 | 1025.9 |
| 20260901111144 | 56 | 153 | 0.0 | 1.7 | 0.00 | 0.01 | 0.01 | 87 | 1025.9 |
| 20260901110642 | 57 | 153 | 0.0 | 1.7 | 0.00 | 0.01 | 0.01 | 86 | 1025.9 |
| 20260901110418 | 57 | 153 | 0.9 | 1.7 | 0.00 | 0.01 | 0.01 | 86 | 1025.8 |
| 20260901105634 | 57 | 64 | 0.0 | 1.7 | 0.00 | 0.01 | 0.01 | 86 | 1025.8 |
| 20260901105132 | 57 | 65 | 0.0 | 0.0 | 0.00 | 0.01 | 0.01 | 86 | 1025.8 |
| 20260901104629 | 57 | 65 | 0.0 | 0.0 | 0.00 | 0.01 | 0.01 | 86 | 1025.8 |
| 20260901104132 | 57 | 65 | 0.0 | 0.0 | 0.00 | 0.01 | 0.01 | 85 | 1025.8 |
| 20260901103825 | 58 | 65 | 0.0 | 0.0 | 0.00 | 0.01 | 0.01 | 85 | 1025.9 |
| 20260901103035 | 58 | 65 | 0.0 | 0.9 | 0.00 | 0.01 | 0.01 | 85 | 1025.9 |
| 20260901102517 | 58 | 65 | 0.0 | 0.9 | 0.00 | 0.01 | 0.01 | 84 | 1025.9 |
| 20260901102018 | 58 | 65 | 0.0 | 0.9 | 0.00 | 0.01 | 0.01 | 84 | 1025.9 |
| 20260901101502 | 58 | 65 | 0.0 | 0.0 | 0.00 | 0.01 | 0.01 | 84 | 1025.9 |
| 20260901100922 | 58 | 65 | 0.0 | 0.0 | 0.00 | 0.01 | 0.01 | 83 | 1026.0 |
| 20260901100618 | 58 | 65 | 0.0 | 0.0 | 0.00 | 0.01 | 0.01 | 83 | 1026.0 |
| 20260901095830 | 59 | 65 | 0.0 | 0.0 | 0.00 | 0.01 | 0.01 | 83 | 1026.0 |
| 20260901095301 | 59 | 65 | 0.0 | 0.0 | 0.00 | 0.01 | 0.01 | 82 | 1026.0 |
| 20260901094744 | 59 | 65 | 0.0 | 0.0 | 0.00 | 0.01 | 0.01 | 82 | 1025.9 |
| 20260901094233 | 59 | 65 | 0.0 | 0.0 | 0.00 | 0.01 | 0.01 | 82 | 1025.9 |
| 20260901093731 | 60 | 65 | 0.0 | 0.0 | 0.00 | 0.01 | 0.01 | 81 | 1025.9 |
| 20260901093229 | 60 | 65 | 0.0 | 0.0 | 0.00 | 0.01 | 0.01 | 81 | 1025.9 |
| 20260901092727 | 60 | 65 | 0.0 | 0.0 | 0.00 | 0.01 | 0.01 | 80 | 1026.0 |
| 20260901092225 | 60 | 65 | 0.0 | 0.0 | 0.00 | 0.01 | 0.01 | 80 | 1025.9 |
| 20260901091725 | 61 | 65 | 0.0 | 0.9 | 0.00 | 0.01 | 0.01 | 80 | 1025.8 |
| 20260901091225 | 61 | 65 | 0.0 | 0.9 | 0.00 | 0.01 | 0.01 | 79 | 1025.8 |
| 20260901090719 | 61 | 65 | 0.0 | 0.9 | 0.00 | 0.01 | 0.01 | 78 | 1025.6 |
| 20260901090216 | 62 | 65 | 0.0 | 0.9 | 0.00 | 0.01 | 0.01 | 78 | 1025.6 |
| 20260901085943 | 62 | 65 | 0.0 | 0.9 | 0.00 | 0.01 | 0.01 | 77 | 1025.6 |
| 20260901085214 | 62 | 64 | 0.0 | 0.0 | 0.00 | 0.01 | 0.01 | 77 | 1025.5 |
| 20260901084713 | 63 | 65 | 0.0 | 0.0 | 0.00 | 0.01 | 0.01 | 76 | 1025.5 |
| 20260901084228 | 63 | 65 | 0.0 | 0.9 | 0.00 | 0.01 | 0.01 | 76 | 1025.4 |
| 20260901083659 | 63 | 65 | 0.0 | 0.9 | 0.00 | 0.01 | 0.01 | 75 | 1025.4 |
| 20260901083157 | 63 | 64 | 0.0 | 0.9 | 0.00 | 0.01 | 0.01 | 75 | 1025.4 |
| 20260901082655 | 64 | 65 | 0.0 | 0.9 | 0.00 | 0.01 | 0.01 | 74 | 1025.2 |
| 20260901082153 | 64 | 65 | 0.0 | 0.0 | 0.00 | 0.01 | 0.01 | 74 | 1025.2 |
| 20260901081646 | 64 | 65 | 0.0 | 0.0 | 0.00 | 0.01 | 0.01 | 73 | 1025.2 |
| 20260901081143 | 64 | 65 | 0.0 | 0.0 | 0.00 | 0.01 | 0.01 | 73 | 1025.1 |
| 20260901080654 | 65 | 65 | 0.0 | 0.9 | 0.00 | 0.01 | 0.01 | 72 | 1025.0 |
| 20260901080141 | 65 | 64 | 0.0 | 1.7 | 0.00 | 0.01 | 0.01 | 72 | 1025.0 |
| 20260901075644 | 65 | 64 | 0.0 | 1.7 | 0.00 | 0.01 | 0.01 | 72 | 1025.0 |
| 20260901075359 | 65 | 65 | 0.0 | 1.7 | 0.00 | 0.01 | 0.01 | 72 | 1024.9 |
| 20260901074636 | 65 | 65 | 0.0 | 1.7 | 0.00 | 0.01 | 0.01 | 71 | 1024.9 |
| 20260901074131 | 66 | 64 | 0.0 | 1.7 | 0.00 | 0.01 | 0.01 | 71 | 1024.8 |
| 20260901073644 | 66 | 65 | 0.0 | 1.7 | 0.00 | 0.01 | 0.01 | 71 | 1024.8 |
| 20260901073130 | 66 | 65 | 0.0 | 2.6 | 0.00 | 0.01 | 0.01 | 71 | 1024.9 |
| 20260901072630 | 66 | 64 | 0.9 | 2.6 | 0.00 | 0.01 | 0.01 | 70 | 1024.9 |
| 20260901072102 | 66 | 65 | 0.9 | 2.6 | 0.00 | 0.01 | 0.01 | 70 | 1024.8 |
| 20260901071535 | 67 | 64 | 0.9 | 2.6 | 0.00 | 0.01 | 0.01 | 70 | 1024.8 |
| 20260901071035 | 67 | 65 | 0.9 | 3.5 | 0.00 | 0.01 | 0.01 | 70 | 1024.8 |
| 20260901070534 | 67 | 64 | 0.9 | 3.5 | 0.00 | 0.01 | 0.01 | 70 | 1024.8 |
| 20260901070007 | 67 | 66 | 0.9 | 3.5 | 0.00 | 0.01 | 0.01 | 70 | 1024.7 |
| 20260901065454 | 67 | 67 | 0.9 | 3.5 | 0.00 | 0.01 | 0.01 | 71 | 1024.7 |
| 20260901064955 | 67 | 58 | 0.9 | 1.7 | 0.00 | 0.01 | 0.01 | 71 | 1024.7 |
| 20260901064455 | 67 | 58 | 0.0 | 1.7 | 0.00 | 0.01 | 0.01 | 71 | 1024.7 |
| 20260901063956 | 67 | 58 | 0.9 | 2.6 | 0.00 | 0.01 | 0.01 | 70 | 1024.7 |
| 20260901063452 | 67 | 58 | 0.9 | 3.5 | 0.00 | 0.01 | 0.01 | 70 | 1024.7 |
| 20260901062949 | 68 | 58 | 0.9 | 3.5 | 0.00 | 0.01 | 0.01 | 69 | 1024.7 |
| 20260901062707 | 68 | 55 | 0.9 | 3.5 | 0.00 | 0.01 | 0.01 | 69 | 1024.6 |
| 20260901061949 | 68 | 58 | 0.9 | 3.5 | 0.00 | 0.01 | 0.01 | 68 | 1024.7 |
| 20260901061447 | 68 | 0 | 0.9 | 3.5 | 0.00 | 0.01 | 0.01 | 68 | 1024.7 |
| 20260901060945 | 69 | 47 | 0.9 | 3.5 | 0.00 | 0.01 | 0.01 | 67 | 1024.7 |
| 20260901060444 | 69 | 20 | 0.9 | 3.5 | 0.00 | 0.01 | 0.01 | 68 | 1024.7 |
| 20260901055937 | 69 | 68 | 0.9 | 3.5 | 0.00 | 0.01 | 0.01 | 68 | 1024.8 |
| 20260901055436 | 69 | 69 | 0.9 | 2.6 | 0.00 | 0.01 | 0.01 | 67 | 1024.8 |
| 20260901054933 | 69 | 69 | 0.9 | 2.6 | 0.00 | 0.01 | 0.01 | 67 | 1024.8 |
| 20260901054436 | 69 | 68 | 0.9 | 2.6 | 0.00 | 0.01 | 0.01 | 68 | 1024.8 |
| 20260901053916 | 69 | 69 | 0.9 | 3.5 | 0.00 | 0.01 | 0.01 | 68 | 1024.8 |
| 20260901053636 | 69 | 21 | 0.9 | 3.5 | 0.00 | 0.01 | 0.01 | 68 | 1024.8 |
| 20260901052849 | 69 | 51 | 0.9 | 3.5 | 0.00 | 0.01 | 0.01 | 67 | 1024.8 |
| 20260901052351 | 70 | 39 | 0.9 | 3.5 | 0.00 | 0.01 | 0.01 | 67 | 1024.8 |
| 20260901051836 | 70 | 52 | 0.9 | 2.6 | 0.00 | 0.01 | 0.01 | 68 | 1024.9 |
| 20260901051332 | 70 | 58 | 0.9 | 2.6 | 0.00 | 0.01 | 0.01 | 68 | 1024.9 |
| 20260901050831 | 70 | 58 | 0.9 | 2.6 | 0.00 | 0.01 | 0.01 | 68 | 1025.0 |
| 20260901050331 | 70 | 58 | 0.9 | 2.6 | 0.00 | 0.01 | 0.01 | 69 | 1025.0 |
| 20260901045831 | 70 | 47 | 0.9 | 2.6 | 0.00 | 0.01 | 0.01 | 69 | 1025.0 |
| 20260901045329 | 70 | 47 | 0.9 | 2.6 | 0.00 | 0.01 | 0.01 | 69 | 1025.1 |
| 20260901044829 | 70 | 55 | 0.9 | 2.6 | 0.00 | 0.01 | 0.01 | 69 | 1025.1 |
| 20260901044332 | 70 | 55 | 0.9 | 2.6 | 0.00 | 0.01 | 0.01 | 69 | 1025.2 |
| 20260901043823 | 70 | 57 | 0.9 | 2.6 | 0.00 | 0.01 | 0.01 | 68 | 1025.3 |
| 20260901043323 | 71 | 29 | 0.9 | 2.6 | 0.00 | 0.01 | 0.01 | 68 | 1025.3 |
| 20260901042819 | 71 | 118 | 0.9 | 6.1 | 0.00 | 0.01 | 0.01 | 68 | 1025.4 |
| 20260901042322 | 71 | 125 | 0.9 | 6.1 | 0.00 | 0.01 | 0.01 | 67 | 1025.4 |
| 20260901041816 | 71 | 52 | 1.7 | 6.1 | 0.00 | 0.01 | 0.01 | 67 | 1025.5 |
| 20260901041317 | 71 | 120 | 1.7 | 7.0 | 0.00 | 0.01 | 0.01 | 67 | 1025.6 |
| 20260901040817 | 71 | 135 | 1.7 | 7.0 | 0.00 | 0.01 | 0.01 | 67 | 1025.6 |
| 20260901040311 | 71 | 93 | 0.9 | 3.5 | 0.00 | 0.01 | 0.01 | 67 | 1025.7 |
| 20260901035821 | 71 | 122 | 0.9 | 7.8 | 0.00 | 0.01 | 0.01 | 67 | 1025.7 |
| 20260901035309 | 71 | 81 | 0.9 | 7.8 | 0.00 | 0.01 | 0.01 | 67 | 1025.7 |
| 20260901034806 | 71 | 118 | 0.9 | 4.3 | 0.00 | 0.01 | 0.01 | 67 | 1025.7 |
| 20260901034307 | 71 | 118 | 0.9 | 4.3 | 0.00 | 0.01 | 0.01 | 67 | 1025.8 |
| 20260901033805 | 72 | 44 | 0.9 | 3.5 | 0.00 | 0.01 | 0.01 | 66 | 1025.8 |
| 20260901033304 | 72 | 22 | 1.7 | 6.1 | 0.00 | 0.01 | 0.01 | 66 | 1025.8 |
| 20260901032804 | 72 | 120 | 0.9 | 6.1 | 0.00 | 0.01 | 0.01 | 65 | 1025.9 |
| 20260901032306 | 73 | 121 | 0.9 | 7.0 | 0.00 | 0.01 | 0.01 | 65 | 1026.0 |
| 20260901031805 | 73 | 55 | 0.9 | 7.0 | 0.00 | 0.01 | 0.01 | 65 | 1026.0 |
| 20260901031236 | 73 | 54 | 1.7 | 7.0 | 0.00 | 0.01 | 0.01 | 64 | 1026.0 |
| 20260901030736 | 74 | 124 | 1.7 | 7.0 | 0.00 | 0.01 | 0.01 | 63 | 1026.1 |
| 20260901030238 | 74 | 120 | 1.7 | 7.0 | 0.00 | 0.01 | 0.01 | 65 | 1026.2 |
| 20260901025734 | 73 | 27 | 1.7 | 7.0 | 0.00 | 0.01 | 0.01 | 64 | 1026.2 |
| 20260901025232 | 73 | 125 | 0.9 | 4.3 | 0.00 | 0.01 | 0.01 | 66 | 1026.4 |
| 20260901024731 | 73 | 129 | 0.9 | 4.3 | 0.00 | 0.01 | 0.01 | 65 | 1026.5 |
| 20260901024229 | 72 | 129 | 0.9 | 4.3 | 0.00 | 0.01 | 0.01 | 66 | 1026.6 |
| 20260901023728 | 72 | 56 | 0.9 | 3.5 | 0.00 | 0.01 | 0.01 | 67 | 1026.7 |
| 20260901023449 | 72 | 56 | 0.9 | 3.5 | 0.00 | 0.01 | 0.01 | 67 | 1026.8 |
| 20260901022726 | 71 | 56 | 0.9 | 4.3 | 0.00 | 0.01 | 0.01 | 67 | 1026.9 |
| 20260901022703 | 71 | 47 | 0.9 | 4.3 | 0.00 | 0.01 | 0.01 | 68 | 1027.0 |
| 20260901021724 | 71 | 119 | 0.9 | 2.6 | 0.00 | 0.01 | 0.01 | 67 | 1027.0 |
| 20260901021225 | 71 | 119 | 0.9 | 3.5 | 0.00 | 0.01 | 0.01 | 68 | 1027.2 |
| 20260901020722 | 71 | 120 | 0.9 | 3.5 | 0.00 | 0.01 | 0.01 | 68 | 1027.3 |
| 20260901020225 | 71 | 120 | 0.9 | 3.5 | 0.00 | 0.01 | 0.01 | 68 | 1027.4 |
| 20260901015700 | 71 | 120 | 0.9 | 3.5 | 0.00 | 0.01 | 0.01 | 69 | 1027.4 |
| 20260901015158 | 71 | 175 | 0.9 | 4.3 | 0.00 | 0.01 | 0.01 | 71 | 1027.4 |
| 20260901014659 | 71 | 175 | 0.9 | 4.3 | 0.00 | 0.01 | 0.01 | 71 | 1027.5 |
| 20260901014155 | 71 | 141 | 0.9 | 4.3 | 0.00 | 0.01 | 0.01 | 71 | 1027.7 |
| 20260901013652 | 71 | 126 | 0.9 | 4.3 | 0.00 | 0.01 | 0.01 | 71 | 1027.8 |
| 20260901013151 | 71 | 118 | 1.7 | 4.3 | 0.00 | 0.01 | 0.01 | 70 | 1027.9 |
| 20260901012649 | 72 | 118 | 1.7 | 4.3 | 0.00 | 0.01 | 0.01 | 69 | 1028.0 |
| 20260901012408 | 72 | 119 | 1.7 | 4.3 | 0.00 | 0.01 | 0.01 | 70 | 1028.1 |
| 20260901011912 | 72 | 117 | 0.9 | 3.5 | 0.00 | 0.01 | 0.01 | 70 | 1028.2 |
| 20260901011149 | 72 | 199 | 0.9 | 4.3 | 0.00 | 0.01 | 0.01 | 70 | 1028.3 |
| 20260901010640 | 72 | 120 | 0.9 | 4.3 | 0.00 | 0.01 | 0.01 | 71 | 1028.4 |
| 20260901010138 | 72 | 122 | 0.9 | 6.1 | 0.00 | 0.01 | 0.01 | 73 | 1028.4 |
| 20260901005636 | 71 | 48 | 0.9 | 6.1 | 0.00 | 0.01 | 0.01 | 74 | 1028.5 |
| 20260901005137 | 71 | 99 | 0.9 | 5.2 | 0.00 | 0.01 | 0.01 | 74 | 1028.6 |
| 20260901004636 | 71 | 99 | 1.7 | 5.2 | 0.00 | 0.01 | 0.01 | 77 | 1028.7 |
| 20260901004354 | 70 | 212 | 2.6 | 4.3 | 0.00 | 0.01 | 0.01 | 78 | 1028.8 |
| 20260901003637 | 70 | 233 | 2.6 | 4.3 | 0.00 | 0.01 | 0.01 | 79 | 1028.8 |
| 20260901003113 | 69 | 135 | 2.6 | 4.3 | 0.00 | 0.01 | 0.01 | 81 | 1029.0 |
| 20260901002612 | 69 | 199 | 2.6 | 4.3 | 0.00 | 0.01 | 0.01 | 82 | 1029.1 |
| 20260901002109 | 68 | 122 | 1.7 | 5.2 | 0.00 | 0.01 | 0.01 | 83 | 1029.2 |
| 20260901001607 | 68 | 196 | 2.6 | 7.0 | 0.00 | 0.01 | 0.01 | 86 | 1029.4 |
| 20260901001105 | 67 | 202 | 2.6 | 7.0 | 0.00 | 0.01 | 0.01 | 87 | 1029.5 |
| 20260901000837 | 67 | 239 | 1.7 | 6.1 | 0.00 | 0.01 | 0.01 | 89 | 1029.6 |
| 20260901000109 | 66 | 165 | 1.7 | 4.3 | 0.00 | 0.01 | 0.01 | 90 | 1029.6 |
| 20260831235602 | 66 | 224 | 1.7 | 5.2 | 0.00 | 0.01 | 0.01 | 90 | 1029.6 |
| 20260831235059 | 65 | 154 | 1.7 | 5.2 | 0.00 | 0.01 | 0.01 | 91 | 1029.8 |
| 20260831234557 | 65 | 185 | 0.9 | 4.3 | 0.00 | 0.01 | 0.01 | 92 | 1029.7 |
| 20260831234326 | 64 | 201 | 0.9 | 3.5 | 0.00 | 0.01 | 0.01 | 93 | 1029.7 |
| 20260831233552 | 64 | 202 | 1.7 | 3.5 | 0.00 | 0.01 | 0.01 | 92 | 1029.7 |
| 20260831233050 | 64 | 199 | 1.7 | 3.5 | 0.00 | 0.01 | 0.01 | 93 | 1029.7 |
| 20260831232553 | 64 | 180 | 1.7 | 4.3 | 0.00 | 0.01 | 0.01 | 93 | 1029.7 |
| 20260831232041 | 63 | 180 | 1.7 | 4.3 | 0.00 | 0.01 | 0.01 | 93 | 1029.7 |
| 20260831231801 | 63 | 199 | 1.7 | 3.5 | 0.01 | 0.01 | 0.01 | 93 | 1029.6 |
| 20260831231038 | 63 | 203 | 1.7 | 6.1 | 0.01 | 0.01 | 0.01 | 93 | 1029.6 |
| 20260831230536 | 63 | 223 | 2.6 | 6.1 | 0.01 | 0.01 | 0.01 | 93 | 1029.6 |
| 20260831230051 | 62 | 185 | 2.6 | 6.1 | 0.01 | 0.01 | 0.01 | 93 | 1029.7 |
| 20260831225753 | 62 | 201 | 1.7 | 5.2 | 0.01 | 0.01 | 0.01 | 93 | 1029.7 |
| 20260831225030 | 62 | 205 | 1.7 | 4.3 | 0.01 | 0.01 | 0.01 | 93 | 1029.7 |
| 20260831224531 | 62 | 170 | 1.7 | 6.1 | 0.01 | 0.01 | 0.01 | 93 | 1029.7 |
| 20260831224033 | 62 | 185 | 1.7 | 6.1 | 0.01 | 0.01 | 0.01 | 93 | 1029.7 |
| 20260831223528 | 61 | 185 | 0.9 | 3.5 | 0.01 | 0.01 | 0.01 | 93 | 1029.7 |
| 20260831223258 | 61 | 175 | 0.0 | 2.6 | 0.01 | 0.01 | 0.01 | 93 | 1029.8 |
| 20260831222529 | 61 | 175 | 0.9 | 3.5 | 0.01 | 0.01 | 0.01 | 93 | 1029.8 |
| 20260831222026 | 61 | 175 | 1.7 | 3.5 | 0.01 | 0.01 | 0.01 | 93 | 1029.8 |
| 20260831221529 | 60 | 180 | 1.7 | 3.5 | 0.00 | 0.00 | 0.00 | 93 | 1029.7 |